This demonstration page uses our WeatherBlox Daily Observations layout. Learn more.

Left ArrowRight Arrow

Hourly Observations for April 12, 2022

Temp ( °F °C ) Dew Point ( °F °C ) Humidity (%) Winds ( mph kmh ) Pressure ( in mb ) Visibility ( mi km ) Precip ( " mm )
12:56 am 00:56 Clear 50 10 28 -2 43 43 SE 7 11 29.82 1010 10 16 0.00 0.00
1:56 am 01:56 Mostly Cloudy 49 9.7 29 -1.4 46 46 SE 7 11 29.80 1009 10 16 0.00 0.00
2:56 am 02:56 Mostly Clear 50 10.2 33 0.5 51 51 SE 14 22 29.76 1008 10 16 0.00 0.00
3:56 am 03:56 Mostly Cloudy 51 10.5 35 1.6 54 54 SE 16 26 29.68 1005 10 16 0.00 0.00
4:56 am 04:56 Mostly Cloudy 51 10.7 35 1.8 54 54 SE 16 26 29.70 1006 10 16 0.00 0.00
5:56 am 05:56 Cloudy 51 10.5 35 1.6 54 54 SE 12 19 29.66 1004 10 16 0.00 0.00
6:56 am 06:56 Mostly Cloudy 52 11 38 3.1 59 59 SE 20 31 29.62 1003 9 14 0.00 0.00
7:56 am 07:56 Mostly Cloudy 53 11.6 43 5.9 68 68 SE 20 31 29.59 1002 9 14 0.00 0.00
8:56 am 08:56 Mostly Cloudy 54 12.3 47 8.6 78 78 SE 25 41 29.53 1000 8 13 0.00 0.00
9:33 am 09:33 Cloudy with Drizzle 54 12 52 11 94 94 SE 25 41 29.50 999 3 5 0.00 0.00
9:41 am 09:41 Partly Cloudy with Mist and Fog 54 12 52 11 94 94 SE 26 43 29.50 999 3 4 0.00 0.00
9:56 am 09:56 Cloudy with Drizzle 53 11.8 52 11.2 96 96 SE 26 43 29.49 999 4 6 0.00 0.00
10:41 am 10:41 Partly Cloudy with Mist and Fog 55 13 55 13 100 100 SE 23 37 29.49 999 3 4 0.00 0.00
10:56 am 10:56 Cloudy with Drizzle 55 13 55 13 100 100 SSE 18 30 29.48 998 4 6 0.00 0.00
11:56 am 11:56 Cloudy 58 14.3 58 14.3 100 100 SE 17 28 29.44 997 10 16 0.00 0.00
12:56 pm 12:56 Cloudy 63 17.4 59 15.2 87 87 SSE 23 37 29.39 995 10 16 0.00 0.00
1:56 pm 13:56 Mostly Sunny 78 25.4 60 15.7 55 55 S 21 33 29.31 993 9 14 0.00 0.00
2:56 pm 14:56 undefined 86 30 58 14.5 39 39 S 24 39 29.25 991 8 13 0.00 0.00
3:13 pm 15:13 Hazy 88 31 54 12 31 31 S 24 39 29.24 990 4 6 0.00 0.00
3:56 pm 15:56 Hazy 90 32.2 50 10.2 26 26 S 30 48 29.22 990 6 10 0.00 0.00
4:56 pm 16:56 Hazy 91 32.6 49 9.4 24 24 S 30 48 29.19 988 5 8 0.00 0.00
5:56 pm 17:56 Hazy 89 31.6 46 7.9 23 23 S 24 39 29.20 989 6 10 0.00 0.00
6:56 pm 18:56 Mostly Sunny 87 30.8 50 10.2 28 28 S 29 46 29.17 988 10 16 0.00 0.00
7:56 pm 19:56 Mostly Cloudy with Haze 82 27.7 61 16.3 50 50 S 31 50 29.13 987 5 8 0.00 0.00
8:25 pm 20:25 Cloudy with Thunderstorms 81 27 63 17 54 54 S 22 35 29.18 988 9 14 0.00 0.00
8:29 pm 20:29 Cloudy with Thunderstorms 81 27 61 16 51 51 W 32 52 29.24 990 9 14 0.00 0.00
8:32 pm 20:32 Mostly Clear with Strong Thunderstorms 79 26 55 13 45 45 W 31 50 29.26 991 8 13 0.00 0.00
8:43 pm 20:43 Cloudy with Strong Thunderstorms 59 15 54 12 82 82 WSW 12 19 29.33 993 1 1 0.00 0.00
8:56 pm 20:56 Mostly Cloudy with Strong Thunderstorms 56 13.1 52 11.3 89 89 SSW 10 17 29.35 994 3 4 0.66 16.76
9:38 pm 21:38 Mostly Clear with Nearby Thunderstorms 57 14 54 12 88 88 WNW 12 19 29.37 995 10 16 0.00 0.00
9:56 pm 21:56 Mostly Cloudy 60 15.7 48 9.1 65 65 NW 18 30 29.38 995 10 16 0.10 2.54
10:56 pm 22:56 Windy with Rain Showers Likely 57 13.9 42 5.8 58 58 NW 20 31 29.50 999 10 16 0.00 0.00
11:56 pm 23:56 Cloudy 54 12.2 38 3.2 54 54 NNW 23 37 29.53 1000 10 16 0.00 0.00

Powered by AerisWeather